Tacoma Narrows, WA
on Thursday, December 27, 2012

Thursday
Previous Day Next Day
Daily Summary
 ActualAverageRecord
Temperature
Mean Temperature °F °F  
Max Temperature 46°F 43°F 52°F (2002)
Min Temperature 39°F 36°F 33°F (2006)
Degree Days
Heating Degree Days 22    
Moisture
Dew Point 38°F   
Average Humidity 83    
Maximum Humidity 89    
Minimum Humidity 71    
Precipitation
Precipitation 0.01 in in in ()
Wind
Wind Speed 9 mph   
Max Wind Speed 14 mph   
Max Gust Speed mph   
Visibility 10 miles   
Events Rain   
Averages and records for this station are not official NWS values.
Key: T is trace of precipitation, MM is missing value
Source: NWS Daily Summary
Seasonal Weather Averages
Time(PST)TemperatureDew PointHumidity Pressure Visibility Wind DirectionWind SpeedGust SpeedPrecipitationEvents Conditions
12:53 AM 42.1°F 37.9°F 85% 29.95 in 10.0 miles South 13.8 mph - 0.01 in   Overcast
1:02 AM 42.8°F 37.4°F 81% 29.94 in 10.0 miles South 12.7 mph - N/A   Overcast
1:26 AM 42.8°F 37.4°F 81% 29.95 in 10.0 miles SSW 13.8 mph - N/A   Overcast
1:53 AM 42.1°F 37.9°F 85% 29.98 in 10.0 miles South 13.8 mph - 0.00 in Rain Light Rain
2:53 AM 42.1°F 37.9°F 85% 30.00 in 10.0 miles SSW 11.5 mph - 0.00 in   Overcast
3:53 AM 42.1°F 39.0°F 89% 30.01 in 10.0 miles South 9.2 mph - N/A   Overcast
4:07 AM 42.8°F 39.2°F 87% 30.00 in 10.0 miles SSW 9.2 mph - N/A   Overcast
4:14 AM 42.8°F 39.2°F 87% 30.00 in 10.0 miles South 8.1 mph - N/A   Overcast
4:35 AM 42.8°F 39.2°F 87% 30.01 in 10.0 miles SSW 8.1 mph - N/A   Overcast
4:37 AM 42.8°F 39.2°F 87% 30.01 in 10.0 miles SSW 5.8 mph - N/A   Overcast
4:41 AM 42.8°F 39.2°F 87% 30.01 in 10.0 miles SSW 6.9 mph - N/A   Overcast
4:53 AM 42.1°F 37.9°F 85% 30.02 in 10.0 miles SSW 6.9 mph - N/A   Overcast
5:01 AM 42.8°F 39.2°F 87% 30.01 in 10.0 miles SSW 5.8 mph - N/A   Overcast
5:08 AM 42.8°F 39.2°F 87% 30.02 in 10.0 miles SSW 6.9 mph - N/A   Overcast
5:53 AM 42.1°F 39.0°F 89% 30.04 in 10.0 miles South 6.9 mph - N/A   Overcast
6:01 AM 42.8°F 39.2°F 87% 30.03 in 10.0 miles South 5.8 mph - N/A   Overcast
6:33 AM 42.8°F 37.4°F 81% 30.04 in 10.0 miles WSW 3.5 mph - N/A   Overcast
6:53 AM 41.0°F 37.9°F 89% 30.05 in 10.0 miles WSW 3.5 mph - N/A   Overcast
7:31 AM 42.8°F 37.4°F 81% 30.05 in 10.0 miles SW 5.8 mph - N/A   Overcast
7:53 AM 42.1°F 37.9°F 85% 30.07 in 10.0 miles SW 5.8 mph - N/A   Overcast
8:02 AM 42.8°F 37.4°F 81% 30.06 in 10.0 miles SW 5.8 mph - N/A   Overcast
8:53 AM 41.0°F 37.9°F 89% 30.09 in 10.0 miles West 4.6 mph - N/A   Overcast
9:53 AM 42.1°F 39.0°F 89% 30.12 in 10.0 miles SSW 4.6 mph - N/A   Overcast
10:24 AM 42.8°F 39.2°F 87% 30.11 in 10.0 miles SSW 5.8 mph - N/A   Overcast
10:53 AM 44.1°F 39.0°F 82% 30.12 in 10.0 miles SSW 6.9 mph - N/A   Overcast
11:53 AM 44.1°F 37.9°F 79% 30.13 in 10.0 miles SSW 6.9 mph - N/A   Overcast
12:53 PM 45.0°F 37.9°F 76% 30.13 in 10.0 miles SSW 10.4 mph - N/A   Overcast
1:53 PM 46.0°F 37.9°F 73% 30.12 in 10.0 miles South 11.5 mph - N/A   Mostly Cloudy
2:53 PM 45.0°F 37.0°F 74% 30.14 in 10.0 miles South 10.4 mph - N/A   Mostly Cloudy
3:53 PM 44.6°F 35.6°F 71% 30.14 in 10.0 miles SSW 6.9 mph - N/A   Mostly Cloudy
4:53 PM 43.0°F 37.0°F 80% 30.16 in 10.0 miles South 9.2 mph - N/A   Mostly Cloudy
5:53 PM 42.1°F 36.0°F 79% 30.16 in 10.0 miles SSE 5.8 mph - N/A   Mostly Cloudy
6:53 PM 42.1°F 36.0°F 79% 30.16 in 10.0 miles SSW 9.2 mph - N/A   Overcast
7:53 PM 42.1°F 36.0°F 79% 30.16 in 10.0 miles SSW 5.8 mph - 0.00 in   Overcast
8:53 PM 41.0°F 36.0°F 82% 30.15 in 10.0 miles South 4.6 mph - N/A   Mostly Cloudy
9:53 PM 41.0°F 35.1°F 79% 30.17 in 10.0 miles SSE 4.6 mph - N/A   Mostly Cloudy
10:53 PM 41.0°F 35.1°F 79% 30.17 in 10.0 miles Calm Calm - N/A   Overcast
11:53 PM 39.9°F 33.1°F 77% 30.17 in 10.0 miles SE 3.5 mph - N/A   Mostly Cloudy
Moon Phase
Dec. 27 Dec. 28 Jan. 04 Jan. 11 Jan. 18
Sunrise:07:56 AM (PST) Moon Rise:04:17 PM (PST)12/27
Sunset:04:26 PM (PST) Moon Set:07:09 AM (PST)12/27

Copyright © 2014 The Weather Underground, Inc.